www.pogodaiklimat.ru
ПОГОДА в Вийтасаари
Время
(UTC), дата
06 10.10
09 10.10
12 10.10
15 10.10
18 10.10
21 10.10
00 11.10
03 11.10
06 11.10
09 11.10
12 11.10
15 11.10
18 11.10
21 11.10
00 12.10
03 12.10
06 12.10
09 12.10
12 12.10
15 12.10
18 12.10
21 12.10
00 13.10
03 13.10
06 13.10
09 13.10
12 13.10
15 13.10
18 13.10
21 13.10
00 14.10
03 14.10
06 14.10
09 14.10
12 14.10
15 14.10
18 14.10
21 14.10
00 15.10
03 15.10
06 15.10
09 15.10
12 15.10
15 15.10
18 15.10
21 15.10
00 16.10
03 16.10
06 16.10
09 16.10
12 16.10
15 16.10
18 16.10
21 16.10
00 17.10
03 17.10
Ветер
(напр.,м/с)
Видим. Явления Облачность Т
(С)
Тd
(С)
f
(%)
Тe
(С)
Тes
(С)
Комфортность P
(гПа)
Po
(гПа)
Тmin
(С)
Tmax
(С)
R
(мм)
R24
(мм)
S
(см)
Ю 1-2
{2}
20 км 10/0
[]
-0.9 -0.9 100 -3 -3 прохладно 1002.2 985.8 -2.4 +1.7 <0.5
Ю 2-3
{4}
50 км 9/0
[]
+1.2 +0.6 96 -2 -1 по сезону 1001.7 985.5
Ю 2-3
{3}
45 км 10/0
[]
+2.8 +0.3 84 -0 +1 по сезону 1001.4 985.3
Ю 1-3
{3}
45 км 10/0
[]
+2.6 +1.5 92 +1 +1 по сезону 1000.7 984.6
Ю 2-4
{6}
25 км 8/8 100 м
[]
+1.8 +1.8 100 -2 -2 по сезону 1000.4 984.3 -0.9 +3.1
ЮВ 2-4
{5}
14 км {ливн. осадки, морось} 10/0 50 м
[]
+3.3 +3.3 100 0 0 по сезону 999.2 983.1
Ю 2-5
{5}
7000 м ливневой дождь 10/0 50 м
[]
+4.3 +4.3 100 +1 +1 по сезону 997.9 981.9 0.4
Ю 2-5
{6}
7000 м в посл. час дождь со снегом {ливн. осадки} 10/0 50 м
[]
+5.5 +5.5 100 +3 +3 по сезону 996.7 980.8 0.3
Ю 2-4
{5}
8000 м слаб. морось 10/0 100 м
[]
+6.6 +6.6 100 +4 +4 по сезону 996.1 980.3 +1.5 +6.6 <0.5
Ю 2-4
{5}
28 км {ливн. осадки, морось} 10/0 200 м
[]
+7.9 +7.9 100 +6 +7 тепло 995.6 979.9
Ю 3-5
{5}
40 км {ливн. осадки, дождь} 9/0 300 м
[]
+9.5 +7.7 89 +7 +8 тепло 995.3 979.6
Ю 2-6
{6}
50 км {ливн. осадки, дождь} 9/9 1000 м
[]
+7.6 +7.0 96 +5 +5 тепло 994.8 979.0
Ю 2-4
{5}
20 км {ливн. осадки, дождь} 9/9 200 м
[]
+7.0 +7.0 100 +5 +5 тепло 993.9 978.1 +6.6 +9.6
Ю 2-5
{5}
40 км {ливн. осадки, морось} 10/0 600 м
[]
+7.1 +7.1 100 +5 +5 тепло 992.9 977.2
Ю 2-3
{5}
50 км {ливн. осадки, морось} 10/10 200 м
[]
+6.8 +6.8 100 +4 +4 по сезону 992.2 976.5
ЮВ 2-3
{5}
45 км 10/10 100 м
[]
+6.4 +6.4 100 +4 +4 по сезону 990.5 974.8
В 1-3
{3}
30 км 10/0 100 м
[]
+6.1 +6.1 100 +5 +5 тепло 989.0 973.3 +6.1 +7.1 <0.5
С 1-3
{3}
40 км слаб. дождь 10/0 200 м
[]
+6.9 +6.1 95 +6 +7 тепло 988.3 972.6
С 3-5
{7}
7000 м дымка {ливн. осадки, дождь} 10/10 300 м
[]
+6.6 +5.7 94 +3 +3 по сезону 989.5 973.8
СЗ 3-6
{6}
50 км 10/0 100 м
[]
+4.1 +3.9 99 0 0 по сезону 992.1 976.3
СЗ 3-5
{6}
14 км 10/0 100 м
[]
+2.1 +1.9 99 -2 -2 по сезону 994.3 978.3 +2.0 +7.9
С 2-4
{4}
50 км 10/0 200 м
[]
+1.4 +0.8 96 -2 -2 по сезону 996.1 980.0
СЗ 1-2
{3}
7000 м дымка {ливн. осадки} 10/0 200 м
[]
+0.8 +0.3 96 -1 -1 по сезону 997.2 981.1
СЗ 1-2
{2}
40 км 10/0 100 м
[]
+0.8 +0.6 99 -1 -1 по сезону 998.0 981.8
С 1-2
{2}
27 км переохл. дождь (гололёд) {снег} 10/0 100 м
[]
+1.0 +0.7 98 -1 -1 по сезону 999.2 983.0 +0.7 +2.1 <0.5
СЗ 2-3
{3}
50 км {ливн. осадки, снег} 9/9 200 м
[]
+2.4 +1.3 92 -1 -1 по сезону 1000.9 984.8
СЗ 2-4
{5}
16 км ливневой дождь {снег} 9/0 300 м
[]
+2.8 +1.0 88 -0 0 по сезону 1003.5 987.4
З 2-5
{6}
50 км {ливн. осадки} 9/0 300 м
[]
+3.2 +0.6 83 0 0 по сезону 1005.7 989.5
З 2-4
{5}
11 км ливневой дождь {морось} 10/0 200 м
[]
+2.8 +2.4 97 -1 -1 по сезону 1007.7 991.5 +0.6 +3.7 0.3
З 2-6
{6}
45 км слаб. ливневой дождь 10/0 300 м
[]
+2.5 +1.9 96 -1 -1 по сезону 1009.4 993.2
З 1-4
{5}
50 км в посл. час дождь со снегом {ливн. осадки, морось} 10/0 300 м
[]
+2.3 +1.7 96 0 0 по сезону 1010.3 994.0
ЮЗ 2-3
{4}
50 км {ливн. осадки, морось} 10/0 300 м
[]
+1.9 +0.4 90 -1 -1 по сезону 1010.3 994.0
С 1-2
{2}
50 км {ливн. осадки, морось} 10/0 600 м
[]
+1.7 -0.4 86 -0 -0 по сезону 1009.8 993.5 +1.6 +2.9 <0.5
В 1-2
{3}
27 км туман на расстоянии 10/0 600 м
[]
+2.6 -1.4 75 +1 +2 по сезону 1010.4 994.1
С 1-2
{2}
50 км {ливн. осадки, снег} 1/0 1000 м
[]
+3.1 -0.2 79 +2 +3 по сезону 1009.9 993.6
ЮЗ 2-2
{2}
45 км 1/0 1000 м
[]
+1.6 +0.2 90 -2 -2 по сезону 1010.9 994.6
СЗ 1-3
{3}
50 км слаб. морось {туман} 9/9 300 м
[]
+1.5 +1.0 96 -1 -1 по сезону 1013.0 996.7 +0.9 +3.8
СЗ 2-4
{5}
50 км {ливн. осадки, морось} 9/0 600 м
[]
+1.0 -0.8 88 -3 -3 прохладно 1015.1 998.7
З 2-5
{7}
50 км {ливн. осадки, морось} 9/9 300 м
[]
+1.8 +0.7 92 -2 -2 по сезону 1017.0 1000.6
З 1-3
{5}
50 км ясно +0.5 +0.2 98 -2 -2 по сезону 1018.9 1002.4
ЮЗ 2-4
{4}
30 км 1/0 300 м
[]
-0.4 -0.4 100 -4 -4 прохладно 1020.6 1004.0 -0.7 +2.0 <0.5
ЮЗ 2-4
{4}
50 км ясно +2.5 +0.2 85 -1 +1 по сезону 1022.1 1005.6
Ю 2-4
{4}
45 км ясно +5.4 -0.2 67 +3 +4 по сезону 1022.3 1006.0
Ю 1-4
{4}
50 км 5/0 2000 м
[]
+2.1 +0.2 87 0 0 по сезону 1022.5 1006.0
Ю 2-4
{5}
29 км 9/9 100 м
[]
+1.0 +0.9 99 -3 -3 прохладно 1022.4 1005.8 -0.4 +5.5
Ю 2-4
{5}
40 км 10/10 100 м
[]
+2.1 +1.9 99 -1 -1 по сезону 1022.4 1005.9
Ю 2-5
{5}
45 км 10/0 100 м
[]
+2.4 +2.2 99 -1 -1 по сезону 1021.5 1005.1
ЮВ 2-4
{5}
50 км 9/0 2000 м
[]
+2.2 +1.9 98 -1 -1 по сезону 1020.6 1004.1
ЮВ 2-3
{4}
50 км 4/0
[]
+1.7 +1.5 99 -2 -2 по сезону 1019.8 1003.3 +1.0 +2.5 <0.5
В 2-5
{5}
15 км морось {туман} 9/9 100 м
[]
+2.7 +2.3 97 -1 -1 по сезону 1019.5 1003.1 0.1
В 2-4
{5}
50 км {морось, туман} 10/0 200 м
[]
+3.1 +2.1 93 -0 +1 по сезону 1017.8 1001.5
В 1-4
{5}
50 км 10/0 200 м
[]
+2.9 +1.9 93 +1 +1 по сезону 1017.1 1000.7
СВ 1-3
{5}
40 км 10/0 200 м
[]
+2.7 +2.0 95 +1 +1 по сезону 1016.7 1000.3 +1.7 +3.2
СВ 1-3
{5}
50 км 10/10 300 м
[]
+2.3 +1.0 91 +1 +1 по сезону 1016.5 1000.2
СВ 2-6
{6}
50 км 10/0 200 м
[]
+1.0 +0.4 96 -3 -3 прохладно 1015.8 999.4
СВ 2-5
{6}
50 км 9/0 200 м
[]
+0.1 -0.3 97 -4 -4 прохладно 1015.6 999.1
Местоположение метеостанции Вийтасаари (Финляндия): широта 63.08 долгота 25.86 высота над уровнем моря 130 м.
В архиве по умолчанию представлена погода в Вийтасаари за последнюю неделю. Архивные данные за месяц целиком и за предыдущие месяцы, начиная с января 2011 года, Вы можете получить, выбрав интересующий диапазон дат из раскрывающегося списка и нажав кнопку "Найти!".
*Определитесь, кто Вы:
Внимание! Время в таблицах - всемирное. Для получения местного времени необходимо прибавить поправку, которая равна 1 ч.
Смотрите также архив погоды в соседних городах и на ближайших метеорологических станциях:
Партнеры нашего сайта:      
Пояснения к столбцам:
  • Ветер - указаны скорость ветра в м/с - средняя за 10 мин, порывы в срок и между сроками (в фигурных скобках) и направление, откуда дует ветер: С - северный,
  • СВ - северо-восточный, В - восточный, ЮВ - юго-восточный, Ю - южный, ЮЗ - юго-западный, З - западный, СЗ - северо-западный.
  • Видимость - горизонтальная дальность видимости в метрах или километрах. При видимости от 1 до 10 км при отсутствии осадков обычно наблюдается дымка, при ухудшении видимости до 1 км и менее - туман. В сухую погоду видимость может ухудшаться дымом, пылью или мглою.
  • Явления - указаны атмосферные явления, наблюдавшиеся в срок или в последний час перед сроком; фигурными скобками обозначены явления, наблюдавшиеся между сроками (за 1-3 часа до срока); квадратными скобками обозначены град или гололедные отложения с указанием их диаметра в мм.
  • Облачность - указаны через наклонную черту общая и нижняя облачность в баллах и высота нижней границы облаков в метрах; квадратными скобками обозначены формы облаков: Ci - перистые, Cs - перисто-слоистые, Cc - перисто-кучевые, Ac - высококучевые, As - высокослоистые, Sc - слоисто-кучевые, Ns - слоисто-дождевые, Cu - кучевые, Cb - кучево-дождевые. Подробнее классификацию облаков см. в Атласе облаков (PDF).
  • T - Температура воздуха - температура, измеренная на высоте 2 м над землей.
  • Td - Температура точки росы - температура, при понижении до которой содержащийся в воздухе водяной пар достигнет насыщения.
  • f - Относительная влажность воздуха - влажноcть воздуха, измеренная на высоте 2 м над землей.
  • Te - Эффективная температура - температура, которую ощущает одетый по сезону человек в тени. Характеристика душности погоды. При расчете учитывается влияние влажности воздуха и скорости ветра на теплоощущения человека.
  • Tes - Эффективная температура на солнце - температура, которую ощущает человек, с поправкой на солнечный нагрев. Характеристика знойности погоды. Зависит от высоты солнца над горизонтом, облачности и скорости ветра. Ночью, в пасмурную погоду, а также при ветре 12 м/с и более поправка равна нулю.
  • P - Атмосферное давление - приведенное к уровню моря атмосферное давление.
  • Po - Атмосферное давление - измеренное на уровне метеостанции атмосферное давление.
  • Tmin - Минимальная температура - минимум температуры воздуха на высоте 2 м над землей.
  • Tmax - Максимальная температура - максимум температуры воздуха на высоте 2 м над землей.
  • R - Количество осадков - Количество выпавших осадков за период времени, мм. При наведении курсора мыши на число - период времени, за который выпало указанное количество осадков.
  • R24 - Количество осадков - Количество выпавших осадков за 24 часа, мм.
  • S - Снежный покров - Высота снежного покрова, см. При наведении курсора мыши на число - состояние снежного покрова и степень покрытия местности в баллах.